Location: Dammartin
(48.9032°N, 1.6195°E)
Time: 14:51:11
(UTC+00:00)

Cosmos 2333 Rocket - Pass Details

Date: 03 February 2023
Orbit: 837 x 864 km, 70.8° (Epoch: 30 March)

Event Time Altitude Azimuth Distance (km) Brightness Sun altitude
Rises 18:11:30 0° 176° (S) 3,376 5.4 -13.0°
Reaches altitude 10° 18:14:09 10° 166° (SSE) 2,449 4.6 -13.4°
Maximum altitude 18:19:03 32° 105° (ESE) 1,420 2.9 -14.2°
Enters shadow 18:22:15 19° 56° (ENE) 1,936 3.5 -14.7°
